Skip Page Navigation
NASA JPL Caltech
NASA Logo - Jet Propulsion Laboratory + View the NASA Portal
+ Center for Near-Earth Object Studies
JPL Home Earth Solar System Stars & Galaxies Technology
JPL Solar System Dynamics
BODIES ORBITS EPHEMERIDES TOOLS PHYSICAL DATA DISCOVERY FAQ SITE MAP
IMPORTANT: The SSD Announcement email list is now available. Major changes are coming in the near future, including possible hostname and/or URL changes. To be notified of such changes, subscribe to this email list.

Please visit this page for more details.


JPL Small-Body Database Browser
Search: [ help ]  
26561 (2000 EV37)
Classification: Outer Main-belt Asteroid          SPK-ID: 2026561
Ephemeris | Orbit Diagram | Orbital Elements | Mission Design | Physical Parameters | Discovery Circumstances | Close-Approach Data ]

[ show orbit diagram ]
Orbital Elements at Epoch 2458600.5 (2019-Apr-27.0) TDB
Reference: JPL 22 (heliocentric ecliptic J2000)
 Element Value Uncertainty (1-sigma)   Units 
e .1600208521506144 4.1574e-08  
a 3.389793088075878 2.6439e-08 au
q 2.847355509507713 1.3821e-07 au
i 8.587116369320727 5.1251e-06 deg
node 174.4282803754817 2.6758e-05 deg
peri 219.71169423624 3.0261e-05 deg
M 156.1539801186362 1.526e-05 deg
tp 2457611.699291317663
(2016-Aug-11.19929132)
9.4284e-05 TDB
period 2279.597707693383
6.24
2.667e-05
7.302e-08
d
yr
n .1579226013366486 1.8476e-09 deg/d
Q 3.932230666644043 3.067e-08 au
  Orbit Determination Parameters
   # obs. used (total)      1400  
   data-arc span      14858 days (40.68 yr)  
   first obs. used      1978-09-03  
   last obs. used      2019-05-09  
   planetary ephem.      DE431  
   SB-pert. ephem.      SB431-N16  
   condition code      0  
   norm. resid. RMS      .49236  
   source      ORB  
   producer      Otto Matic  
   solution date      2019-May-30 03:25:15  

Additional Information
 Earth MOID = 1.85907 au 
 Jupiter MOID = 1.54753 au 
 T_jup = 3.111 
[ show covariance matrix ]

Ephemeris | Orbit Diagram | Orbital Elements | Mission Design | Physical Parameters | Discovery Circumstances | Close-Approach Data ]

Physical Parameter Table
Parameter Symbol Value Units Sigma Reference Notes
absolute magnitude H 13.0   n/a MPO313627  

26561 (2000 EV37)          Discovered 2000-Mar-08 by LINEAR at Socorro
Reference: 20010705/Numbers.arcLast Updated: 2004-04-19

[ hide close-approach data ]
Close-Approach Data   ...sorted by Date/Time (TDB)
Date/Time (TDB) Time Uncertainty
(days_HH:MM)
Body Nominal Distance (au) Minimum Distance (au) Maximum Distance (au) V-relative (km/s) V-infinity (km/s) JD (TDB) Time Uncertainty (minutes) Semi-major axis (km) Semi-minor axis (km) range-LOV angle (deg) N-sigma BP Orbit Ref. Reference Modified
1943-Jul-29 11:13 00:04 Jupiter 1.89673742165646 1.89673584612762 1.89673899718519 2.85818803331941 2.69742516851382 2430934.967654136 3.87429439222549 84.7356765909139 24.6249971359103 55.7681303471685 1414316.85172577 T 22 CATAB v2.0e-lin.ifort 2019-May-30 03:25:24 2019-May-30 03:25
1956-Sep-15 07:00 00:03 Jupiter 1.63562396090129 1.63562263642551 1.63562528537929 2.38560375715886 2.15763467143611 2435731.791547313 2.94103641932024 142.871503550422 33.935743795872 72.1944351990808 1841072.71181204 T 22 CATAB v2.0e-lin.ifort 2019-May-30 03:25:24 2019-May-30 03:25
1969-Sep-11 16:27 00:02 Jupiter 1.47078841721255 1.47078788392057 1.47078895050478 2.1828220506336 1.90076781056382 2440476.185714470 1.99617398250853 178.357585144575 37.6024085010009 88.5921252203587 1630930.08740391 T 22 CATAB v2.0e-lin.ifort 2019-May-30 03:25:24 2019-May-30 03:25
1982-Sep-02 20:37 00:01 Jupiter 1.5152651015149 1.51526446371317 1.51526573931818 1.78620306014374 1.43963032173133 2445215.359030164 1.43333256142522 151.855372527951 87.0471940148009 74.4019705636515 1948411.43394429 T 22 CATAB v2.0e-lin.ifort 2019-May-30 03:25:24 2019-May-30 03:25
1995-Nov-01 22:43 < 00:01 Jupiter 1.70417666536028 1.70417599702248 1.70417733369789 1.7140596246881 1.39425448719311 2450023.446394102 0.898004336776321 64.7131260775432 45.1068390570447 -57.715642662281 1925782.47943574 T 22 CATAB v2.0e-lin.ifort 2019-May-30 03:25:24 2019-May-30 03:25
2009-Jan-19 04:51 < 00:01 Jupiter 1.86644103596103 1.86644049716179 1.86644157476026 3.38041580527748 3.2433897674388 2454850.701946187 0.329558806283434 49.2032603586004 20.6921913703424 -84.4478338180628 2626270.25269017 T 22 CATAB v2.0e-lin.ifort 2019-May-30 03:25:24 2019-May-30 03:25
2022-Mar-02 20:28 < 00:01 Jupiter 1.98369268356036 1.98369219700246 1.98369317011826 4.97249436464718 4.88586886681854 2459641.352858087 0.391198066003395 42.0492808237395 22.2735854144479 85.3247482569644 3548861.89826191 T 22 CATAB v2.0e-lin.ifort 2019-May-30 03:25:24 2019-May-30 03:25
2074-Jul-31 04:18 00:02 Jupiter 1.84118311721777 1.84118215213075 1.84118408230542 2.86275148962601 2.69726918512469 2478784.679432027 2.18721822274786 87.1054409841668 24.123384174928 68.938744947046 2525164.09114376 T 22 CATAB v2.0e-lin.ifort 2019-May-30 03:25:24 2019-May-30 03:25
2087-Aug-28 03:36 00:03 Jupiter 1.58634051620087 1.58633951998402 1.58634151242133 2.40893472273469 2.17602195416339 2483560.650112958 2.57960688916772 170.029796453923 28.0864081250405 79.8840125085596 1859171.03243466 T 22 CATAB v2.0e-lin.ifort 2019-May-30 03:25:24 2019-May-30 03:25
2100-Aug-19 20:15 00:03 Jupiter 1.47313128283155 1.47313078060959 1.47313178505318 1.99190984269798 1.67861335555277 2488300.343653190 3.17275131166658 259.898776935422 62.098809670286 -83.422613572 1369340.76163819 T 22 CATAB v2.0e-lin.ifort 2019-May-30 03:25:24 2019-May-30 03:25
2113-Sep-05 13:39 00:05 Jupiter 1.55501541619613 1.5550143247049 1.55501650769107 1.3858740376649 0.911723434952168 2493065.069095034 4.50553667852782 489.584279746768 190.947287707005 15.0592009224707 1517207.98100709 T 22 CATAB v2.0e-lin.ifort 2019-May-30 03:25:24 2019-May-30 03:25
2126-Nov-25 23:21 00:06 Jupiter 1.71708433924115 1.71708304686956 1.71708563160973 2.07166113486183 1.81802022788812 2497894.472817907 5.54589961786946 176.201643397352 46.7403585657813 -40.6764188526827 668250.317694367 T 22 CATAB v2.0e-lin.ifort 2019-May-30 03:25:24 2019-May-30 03:25
2140-Jan-30 05:54 00:06 Jupiter 1.8620960090824 1.86209475281581 1.8620972653674 3.93014364171157 3.81264702441529 2502707.745749681 5.65754246051414 331.616574261885 20.9407197492351 83.8237447799954 2413289.76141692 T 22 CATAB v2.0e-lin.ifort 2019-May-30 03:25:24 2019-May-30 03:25

Alternate Designations
 2000 EV37 = 1978 RC3 = 1997 UQ21 
Ephemeris | Orbit Diagram | Orbital Elements | Mission Design | Physical Parameters | Discovery Circumstances | Close-Approach Data ]
ABOUT SSD CREDITS/AWARDS PRIVACY/COPYRIGHT GLOSSARY LINKS
FirstGov 2019-Dec-09 11:21 UT
(server date/time)  
NASA Home Page
Site Manager:   Ryan S. Park
Webmaster  Alan B. Chamberlin